This is the latest recevied weather packets stored in our database for station/object K4CRS-13. If no packets are shown the sender has not sent any weather packets the latest 10 day(s).
| Time | Temp. | Humidity | Pressure | Rain* | Wind** | Luminosity | Snow |
|---|---|---|---|---|---|---|---|
| 1787511826 | 31.11° C | 60% | 1051.4 hPa | 0 mm | - | 403 W/m² | - |
| 1787511526 | 31.11° C | 60% | 1051.4 hPa | 0 mm | - | 860 W/m² | - |
| 1787511224 | 30.56° C | 63% | 1051.7 hPa | 0 mm | - | 811 W/m² | - |
| 1787510924 | 30° C | 63% | 1051.4 hPa | 0 mm | - | 835 W/m² | - |
| 1787510620 | 30.56° C | 62% | 1051.6 hPa | 0 mm | - | 169 W/m² | - |
| 1787510315 | 30° C | 66% | 1051.6 hPa | 0 mm | - | 655 W/m² | - |
| 1787510011 | 30.56° C | 66% | 1051.7 hPa | 0 mm | - | 180 W/m² | - |
| 1787509706 | 30° C | 63% | 1051.8 hPa | 0 mm | - | 881 W/m² | - |
| 1787509404 | 30° C | 62% | 1052 hPa | 0 mm | - | 202 W/m² | - |
| 1787509104 | 31.11° C | 62% | 1052.1 hPa | 0 mm | - | 243 W/m² | - |
| 1787508799 | 30° C | 63% | 1052 hPa | 0 mm | - | 897 W/m² | - |
| 1787508494 | 30.56° C | 61% | 1052 hPa | 0 mm | - | 203 W/m² | - |
| 1787508191 | 30.56° C | 61% | 1052.1 hPa | 0 mm | - | 834 W/m² | - |
| 1787507886 | 30.56° C | 63% | 1052.2 hPa | 0 mm | - | 435 W/m² | - |
| 1787507582 | 30.56° C | 61% | 1052.2 hPa | 0 mm | - | 733 W/m² | - |
| 1787507278 | 30.56° C | 64% | 1052.4 hPa | 0 mm | - | 643 W/m² | - |
| 1787506974 | 30.56° C | 63% | 1052.3 hPa | 0 mm | - | 188 W/m² | - |
| 1787506669 | 30° C | 62% | 1052.1 hPa | 0 mm | - | 491 W/m² | - |
| 1787506366 | 30.56° C | 63% | 1052.4 hPa | 0 mm | - | 866 W/m² | - |
| 1787506061 | 31.11° C | 61% | 1052.4 hPa | 0 mm | - | 850 W/m² | - |
| 1787505756 | 30° C | 64% | 1052.4 hPa | 0 mm | - | 823 W/m² | - |
| 1787505451 | 30° C | 62% | 1052.3 hPa | 0 mm | - | 813 W/m² | - |
| 1787505146 | 30.56° C | 60% | 1052.6 hPa | 0 mm | - | 733 W/m² | - |
| 1787504845 | 30° C | 60% | 1052.9 hPa | 0 mm | - | 786 W/m² | - |
| 1787504543 | 30° C | 62% | 1052.9 hPa | 0 mm | - | 770 W/m² | - |
* Rain latest hour (hover to see other rain measurements)
** Current wind speed in m/s (hover to see current wind gust speed)